Location: Newark
(25.2697°N, 55.3094°E)
Time: 21:33:10
(UTC+00:00)

Hubble Space Telescope - Visible Passes

Search period start: 20 November 2019 00:00
Search period end: 30 November 2019 00:00
Orbit: 536 x 540 km, 28.5° (Epoch: 19 November)

Date Brightness Start Highest point End Pass type
(mag) Time Alt. Az. Time Alt. Az. Time Alt. Az.
20 Nov 0.8 14:42:35 10° W 14:46:42 69° N 14:48:02 40° ENE visible
21 Nov 0.9 14:32:03 10° W 14:36:09 62° N 14:38:04 29° ENE visible
22 Nov 1.0 14:21:33 10° W 14:25:37 57° N 14:28:05 22° ENE visible
22 Nov 3.8 16:02:56 10° WNW 16:03:25 13° WNW 16:03:25 13° WNW visible
23 Nov 1.1 14:11:02 10° W 14:15:05 54° N 14:18:08 16° ENE visible
23 Nov 3.4 15:52:22 10° WNW 15:53:29 18° WNW 15:53:29 18° WNW visible
24 Nov 1.1 14:00:31 10° WNW 14:04:33 53° N 14:08:14 12° ENE visible
24 Nov 2.9 15:41:48 10° WNW 15:43:34 24° WNW 15:43:34 24° WNW visible
25 Nov 1.1 13:49:59 10° WNW 13:54:01 53° N 13:58:04 10° E visible
25 Nov 2.2 15:31:14 10° WNW 15:33:43 35° WNW 15:33:43 35° WNW visible
26 Nov 1.4 15:20:40 10° WNW 15:23:57 54° W 15:23:57 54° W visible
27 Nov 0.9 15:10:07 10° W 15:14:12 63° SSW 15:14:17 63° S visible
28 Nov 1.4 14:59:35 10° W 15:03:35 50° SSW 15:04:44 38° SSE visible
29 Nov 1.9 14:49:06 10° W 14:52:58 39° SSW 14:55:20 20° SE visible
